Location: San Gennaro Vesuviano
(40.8833°N, 14.5333°E)
Time: 11:16:50
(UTC+00:00)

Meteor 2-3 Rocket - Pass Details

Date: 22 April 2021
Orbit: 841 x 886 km, 81.2° (Epoch: 10 May)

Event Time Altitude Azimuth Distance (km) Brightness Sun altitude
Rises 20:07:36 0° 347° (NNW) 3,477 7.8 -23.4°
Reaches altitude 10° 20:10:04 10° 344° (NNW) 2,529 7.0 -23.7°
Maximum altitude 20:15:45 65° 264° (W) 949 4.0 -24.5°
Enters shadow 20:17:47 39° 199° (SSW) 1,267 4.4 -24.8°
